• In Uzbekistan
  • List of Countries
  • For 7 days
  • Water Temperature
  • Satellite Maps
  • Weather Map
  • Weather Widgets
  • user-avatar
    Login

    Hourly Weather Kos

    Today, 22 October, Monday

    Time Temperature Precipitation Wind Pressure Humidity
    00:00 +16°C° 0 mm 5 mps 763 mmHg 65%
    01:00 +16°C° 0 mm 5 mps 763 mmHg 67%
    02:00 +16°C° 0 mm 5 mps 762 mmHg 67%
    03:00 +17°C° 0 mm 4 mps 762 mmHg 68%
    04:00 +17°C° 0 mm 4 mps 762 mmHg 69%
    05:00 +15°C° 0 mm 4 mps 762 mmHg 71%
    06:00 +17°C° 0 mm 3 mps 762 mmHg 67%
    07:00 +18°C° 0 mm 3 mps 763 mmHg 64%
    08:00 +19°C° 0 mm 3 mps 763 mmHg 61%
    09:00 +21°C° 0 mm 3 mps 763 mmHg 54%
    10:00 +24°C° 0 mm 2 mps 763 mmHg 47%
    11:00 +27°C° 0 mm 2 mps 763 mmHg 40%
    12:00 +27°C° 0 mm 2 mps 763 mmHg 39%
    13:00 +27°C° 0 mm 2 mps 763 mmHg 37%
    14:00 +27°C° 0 mm 2 mps 763 mmHg 36%
    15:00 +26°C° 0 mm 2 mps 762 mmHg 42%
    16:00 +25°C° 0 mm 2 mps 762 mmHg 47%
    17:00 +24°C° 0 mm 2 mps 762 mmHg 53%
    18:00 +21°C° 0 mm 2 mps 762 mmHg 58%
    19:00 +20°C° 0 mm 2 mps 763 mmHg 64%
    20:00 +19°C° 0 mm 2 mps 763 mmHg 69%
    21:00 +20°C° 0 mm 1 mps 763 mmHg 70%
    22:00 +19°C° 0 mm 1 mps 763 mmHg 72%
    23:00 +19°C° 0 mm 1 mps 763 mmHg 73%

    Tomorrow, 23 October, Tuesday

    Time Temperature Precipitation Wind Pressure Humidity
    00:00 +19°C° 0 mm 1 mps 763 mmHg 75%
    01:00 +19°C° 0 mm 1 mps 763 mmHg 77%
    02:00 +19°C° 0 mm 1 mps 763 mmHg 79%
    03:00 +19°C° 0 mm 1 mps 763 mmHg 80%
    04:00 +18°C° 0 mm 1 mps 762 mmHg 82%
    05:00 +18°C° 0 mm 1 mps 762 mmHg 84%
    06:00 +19°C° 0.2 mm 1 mps 762 mmHg 79%
    07:00 +20°C° 0.2 mm 1 mps 762 mmHg 74%
    08:00 +20°C° 0.2 mm 2 mps 762 mmHg 69%
    09:00 +23°C° 0.1 mm 2 mps 762 mmHg 61%
    10:00 +26°C° 0.1 mm 1 mps 762 mmHg 53%
    11:00 +28°C° 0.1 mm 1 mps 762 mmHg 44%
    12:00 +28°C° 0.1 mm 1 mps 762 mmHg 43%
    13:00 +28°C° 0.1 mm 1 mps 761 mmHg 42%
    14:00 +28°C° 0.1 mm 1 mps 761 mmHg 40%
    15:00 +27°C° 0.1 mm 1 mps 761 mmHg 46%
    16:00 +26°C° 0.1 mm 1 mps 761 mmHg 51%
    17:00 +24°C° 0.1 mm 1 mps 760 mmHg 57%
    18:00 +23°C° 0 mm 1 mps 761 mmHg 62%
    19:00 +22°C° 0 mm 1 mps 761 mmHg 67%
    20:00 +21°C° 0 mm 1 mps 761 mmHg 72%
    21:00 +21°C° 0.1 mm 1 mps 761 mmHg 73%
    22:00 +20°C° 0.1 mm 1 mps 761 mmHg 74%
    23:00 +19°C° 0.1 mm 2 mps 761 mmHg 75%

    Day after tomorrow, 24 October, Wednesday

    Time Temperature Precipitation Wind Pressure Humidity
    00:00 +19°C° 0 mm 2 mps 760 mmHg 76%
    01:00 +19°C° 0 mm 2 mps 760 mmHg 76%
    02:00 +18°C° 0 mm 2 mps 760 mmHg 77%
    03:00 +18°C° 0.5 mm 2 mps 759 mmHg 77%
    04:00 +18°C° 0.5 mm 2 mps 759 mmHg 76%
    05:00 +18°C° 0.5 mm 2 mps 759 mmHg 76%
    06:00 +19°C° 0.1 mm 2 mps 758 mmHg 71%
    07:00 +20°C° 0.1 mm 2 mps 758 mmHg 67%
    08:00 +21°C° 0.1 mm 2 mps 758 mmHg 63%
    09:00 +24°C° 0.3 mm 2 mps 758 mmHg 56%
    10:00 +25°C° 0.3 mm 2 mps 758 mmHg 49%
    11:00 +27°C° 0.3 mm 2 mps 758 mmHg 41%
    12:00 +27°C° 0.5 mm 2 mps 758 mmHg 41%
    13:00 +27°C° 0.5 mm 2 mps 757 mmHg 41%
    14:00 +27°C° 0.5 mm 2 mps 757 mmHg 41%
    15:00 +26°C° 0.7 mm 2 mps 756 mmHg 46%
    16:00 +25°C° 0.7 mm 2 mps 756 mmHg 50%
    17:00 +24°C° 0.7 mm 2 mps 756 mmHg 55%
    18:00 +22°C° 0.6 mm 3 mps 756 mmHg 61%
    19:00 +21°C° 0.6 mm 3 mps 756 mmHg 67%
    20:00 +20°C° 0.6 mm 3 mps 756 mmHg 72%
    21:00 +19°C° 0.7 mm 4 mps 756 mmHg 75%
    22:00 +19°C° 0.7 mm 4 mps 756 mmHg 77%
    23:00 +18°C° 0.7 mm 4 mps 756 mmHg 79%

    25 October, Thursday

    Time Temperature Precipitation Wind Pressure Humidity
    00:00 +17°C° 0.4 mm 6 mps 756 mmHg 81%
    01:00 +16°C° 0.4 mm 7 mps 756 mmHg 82%
    02:00 +16°C° 0.4 mm 8 mps 756 mmHg 83%
    03:00 +15°C° 0 mm 9 mps 756 mmHg 83%
    04:00 +15°C° 0 mm 9 mps 756 mmHg 83%
    05:00 +13°C° 0 mm 10 mps 756 mmHg 84%
    06:00 +14°C° 0 mm 10 mps 756 mmHg 79%
    07:00 +14°C° 0 mm 10 mps 757 mmHg 75%
    08:00 +16°C° 0 mm 11 mps 757 mmHg 71%
    09:00 +16°C° 0 mm 11 mps 758 mmHg 57%
    10:00 +17°C° 0 mm 12 mps 758 mmHg 43%
    11:00 +18°C° 0 mm 13 mps 759 mmHg 29%
    12:00 +18°C° 0 mm 13 mps 759 mmHg 26%
    13:00 +18°C° 0 mm 14 mps 759 mmHg 22%
    14:00 +18°C° 0 mm 14 mps 759 mmHg 19%
    15:00 +17°C° 0 mm 14 mps 760 mmHg 20%
    16:00 +15°C° 0 mm 13 mps 760 mmHg 22%
    17:00 +14°C° 0 mm 13 mps 760 mmHg 24%
    18:00 +13°C° 0 mm 13 mps 761 mmHg 27%
    19:00 +12°C° 0 mm 12 mps 761 mmHg 31%
    20:00 +9°C° 0 mm 12 mps 762 mmHg 34%
    21:00 +9°C° 0 mm 11 mps 762 mmHg 37%
    22:00 +8°C° 0 mm 11 mps 763 mmHg 39%
    23:00 +7°C° 0 mm 10 mps 763 mmHg 41%

    26 October, Friday

    Time Temperature Precipitation Wind Pressure Humidity
    00:00 +7°C° 0 mm 10 mps 763 mmHg 44%
    01:00 +6°C° 0 mm 9 mps 763 mmHg 46%
    02:00 +6°C° 0 mm 9 mps 763 mmHg 49%
    03:00 +6°C° 0 mm 9 mps 763 mmHg 49%
    04:00 +6°C° 0 mm 9 mps 764 mmHg 50%
    05:00 +6°C° 0 mm 8 mps 764 mmHg 50%
    06:00 +7°C° 0 mm 8 mps 764 mmHg 46%
    07:00 +9°C° 0 mm 8 mps 764 mmHg 42%
    08:00 +10°C° 0 mm 7 mps 765 mmHg 38%
    09:00 +14°C° 0 mm 7 mps 765 mmHg 32%
    10:00 +17°C° 0 mm 7 mps 765 mmHg 27%
    11:00 +21°C° 0 mm 7 mps 766 mmHg 21%
    12:00 +22°C° 0 mm 7 mps 765 mmHg 21%
    13:00 +23°C° 0 mm 7 mps 765 mmHg 21%
    14:00 +24°C° 0 mm 7 mps 765 mmHg 21%
    15:00 +23°C° 0 mm 7 mps 765 mmHg 24%
    16:00 +22°C° 0 mm 7 mps 765 mmHg 28%
    17:00 +20°C° 0 mm 7 mps 765 mmHg 31%
    18:00 +18°C° 0 mm 7 mps 766 mmHg 34%
    19:00 +17°C° 0 mm 7 mps 766 mmHg 38%
    20:00 +15°C° 0 mm 6 mps 766 mmHg 41%
    21:00 +15°C° 0 mm 6 mps 767 mmHg 42%
    22:00 +14°C° 0 mm 5 mps 767 mmHg 42%
    23:00 +14°C° 0 mm 4 mps 767 mmHg 42%

    27 October, Saturday

    Time Temperature Precipitation Wind Pressure Humidity
    00:00 +13°C° 0 mm 4 mps 767 mmHg 42%
    01:00 +13°C° 0 mm 3 mps 767 mmHg 42%
    02:00 +13°C° 0 mm 3 mps 767 mmHg 42%
    03:00 +14°C° 0 mm 2 mps 767 mmHg 42%
    04:00 +13°C° 0 mm 2 mps 767 mmHg 42%
    05:00 +13°C° 0 mm 2 mps 767 mmHg 42%
    06:00 +14°C° 0 mm 2 mps 768 mmHg 40%
    07:00 +16°C° 0 mm 2 mps 768 mmHg 38%
    08:00 +17°C° 0 mm 2 mps 768 mmHg 35%
    09:00 +19°C° 0 mm 2 mps 768 mmHg 32%
    10:00 +22°C° 0 mm 3 mps 768 mmHg 29%
    11:00 +26°C° 0 mm 3 mps 768 mmHg 26%
    12:00 +26°C° 0 mm 3 mps 768 mmHg 29%
    13:00 +26°C° 0 mm 3 mps 767 mmHg 31%
    14:00 +27°C° 0 mm 3 mps 767 mmHg 34%
    15:00 +25°C° 0 mm 3 mps 767 mmHg 41%
    16:00 +24°C° 0 mm 3 mps 767 mmHg 49%
    17:00 +21°C° 0 mm 3 mps 767 mmHg 56%
    18:00 +20°C° 0 mm 4 mps 767 mmHg 63%
    19:00 +19°C° 0 mm 4 mps 767 mmHg 70%
    20:00 +18°C° 0 mm 4 mps 768 mmHg 76%
    21:00 +16°C° 0 mm 5 mps 768 mmHg 78%
    22:00 +16°C° 0 mm 5 mps 768 mmHg 79%
    23:00 +16°C° 0 mm 5 mps 768 mmHg 80%

    28 October, Sunday

    Time Temperature Precipitation Wind Pressure Humidity
    00:00 +15°C° 0 mm 5 mps 768 mmHg 81%
    01:00 +15°C° 0 mm 5 mps 768 mmHg 82%
    02:00 +15°C° 0 mm 5 mps 767 mmHg 83%
    03:00 +14°C° 0 mm 5 mps 767 mmHg 84%
    04:00 +14°C° 0 mm 5 mps 767 mmHg 84%
    05:00 +14°C° 0 mm 5 mps 767 mmHg 85%
    06:00 +15°C° 0 mm 5 mps 768 mmHg 80%
    07:00 +16°C° 0 mm 5 mps 768 mmHg 75%
    08:00 +17°C° 0 mm 5 mps 768 mmHg 70%
    09:00 +20°C° 0 mm 4 mps 768 mmHg 62%
    10:00 +23°C° 0 mm 4 mps 768 mmHg 54%
    11:00 +26°C° 0 mm 4 mps 768 mmHg 47%
    12:00 +26°C° 0 mm 4 mps 768 mmHg 45%
    13:00 +27°C° 0 mm 4 mps 767 mmHg 44%
    14:00 +27°C° 0 mm 3 mps 767 mmHg 42%
    15:00 +26°C° 0 mm 3 mps 767 mmHg 49%
    16:00 +24°C° 0 mm 3 mps 767 mmHg 57%
    17:00 +22°C° 0 mm 3 mps 767 mmHg 64%
    18:00 +20°C° 0 mm 3 mps 767 mmHg 71%
    19:00 +19°C° 0 mm 2 mps 767 mmHg 79%
    20:00 +18°C° 0 mm 2 mps 767 mmHg 86%
    21:00 +17°C° 0 mm 2 mps 767 mmHg 87%
    22:00 +17°C° 0 mm 2 mps 767 mmHg 88%
    23:00 +17°C° 0 mm 2 mps 768 mmHg 88%
    Show more